www.pogodaiklimat.ru

Архив погоды в Хилке (Забайкальский край, Россия)

Время
(UTC), дата
12 9.06
15 9.06
18 9.06
21 9.06
00 10.06
03 10.06
06 10.06
09 10.06
12 10.06
15 10.06
18 10.06
21 10.06
00 11.06
03 11.06
06 11.06
09 11.06
12 11.06
15 11.06
18 11.06
21 11.06
00 12.06
03 12.06
06 12.06
09 12.06
12 12.06
15 12.06
18 12.06
21 12.06
00 13.06
03 13.06
06 13.06
09 13.06
12 13.06
15 13.06
18 13.06
21 13.06
00 14.06
03 14.06
06 14.06
09 14.06
12 14.06
15 14.06
18 14.06
21 14.06
00 15.06
03 15.06
06 15.06
09 15.06
12 15.06
15 15.06
18 15.06
21 15.06
00 16.06
03 16.06
06 16.06
09 16.06
Ветер
(напр.,м/с)
Видим. Явления Облачность Т
(С)
Тd
(С)
f
(%)
Тe
(С)
Тes
(С)
Комфортность P
(гПа)
Po
(гПа)
Тmin
(С)
Tmax
(С)
R
(мм)
R24
(мм)
S
(см)
В 1 {10} 50 км {гроза} 8/6 600 м
[Cb calv Ci fib]
+20.7 +14.3 67 +25 +25 комфорт 997.7 910.2 +26.0
штиль 0 50 км 6/6 600 м
[Cb calv]
+10.6 +9.9 95 +10 +10 1001.8 910.9
В 1 50 км 4/4 1000 м
[Cu med, cong]
+8.8 +8.4 97 +8 +8 1002.5 910.9
З 1 20 км слаб. ливневой дождь 10/8 600 м
[Cb calv]
+11.2 +11.0 99 +11 +11 1003.3 912.5
СЗ 1 50 км {ливн. дождь} 6/6 600 м
[Cb calv]
+14.2 +12.9 92 +14 +17 1002.4 912.6 +8.6 7
З 4 50 км 9/9 600 м
[Cb calv]
+17.3 +13.5 78 +17 +18 1001.7 912.9
З 4 50 км {ливн. дождь} 9/8 600 м
[Cb calv Ci fib]
+18.2 +13.6 75 +18 +20 1001.2 912.6
штиль 0 50 км в посл. час ливневой дождь 9/8 600 м
[Cb calv Ci fib]
+16.4 +14.9 91 +16 +18 1002.1 913.1
З 1 20 км слаб. ливневой дождь 8/6 600 м
[Cb calv Ci fib]
+15.4 +14.6 95 +16 +16 1003.6 914.1 +18.9 4
З 2 50 км {гроза, ливн. дождь} 6/4 1000 м
[Cu Sc Ci fib]
+11.5 +11.2 98 +10 +10 1005.7 914.8
З 3 50 км {гроза, ливн. дождь} 3/0
[Ci fib]
+10.2 +10.1 99 +8 +8 1006.8 915.3
З 2 50 км 3/0
[Ci fib]
+9.5 +9.4 99 +8 +8 1007.4 915.6
З 2 500 м туман, небо не видно ?/? +10.9 +10.8 99 +9 +9 1006.6 915.4 +8.9 2
СЗ 2 50 км {туман} 9/6 600 м
[Cb calv Ci fib]
+15.6 +11.2 75 +16 +21 1004.2 914.6
ЮЗ 2 20 км слаб. ливневой дождь {туман} 10/8 600 м
[Cb calv Cs]
+14.1 +13.3 95 +14 +16 1004.2 914.2
З 4 50 км {ливн. дождь} 8/6 600 м
[Cb calv Ci fib]
+16.6 +11.6 72 +16 +18 1003.1 913.8
З 3 50 км {ливн. дождь} 6/6 600 м
[Cb calv]
+14.8 +11.3 80 +14 +14 1003.8 914.0 +17.6 4
Ю 2 50 км 6/6 600 м
[Cb calv]
+11.9 +9.5 85 +11 +11 1005.2 914.4
З 1 50 км 4/3 1000 м
[Cu med, cong Ci fib]
+10.6 +8.2 85 +10 +10 1006.0 914.7
З 2 50 км 4/4 1000 м
[Sc]
+10.3 +7.4 82 +9 +9 1006.7 915.2
СЗ 2 50 км 10/10 600 м
[Sc]
+9.8 +8.3 90 +8 +8 1006.5 914.9 +9.8
З 3 50 км в посл. час дождь 10/10 600 м
[Sc]
+11.1 +8.7 85 +9 +9 1005.8 914.7
З 4 50 км {дождь} 9/9 600 м
[Cb calv]
+12.2 +10.0 86 +10 +11 1004.7 914.0
З 4 50 км {ливн. дождь} 9/9 600 м
[Cb calv]
+13.6 +10.0 79 +12 +13 1004.1 913.9
З 3 50 км {ливн. дождь} 9/9 600 м
[Cb calv]
+12.9 +10.6 86 +11 +11 1004.9 914.4 +14.9 2
З 3 50 км в посл. час ливневой дождь 9/8 600 м
[Cb calv Ci fib]
+11.3 +10.3 94 +9 +9 1006.0 914.9
З 3 50 км {ливн. дождь} 8/6 600 м
[Cu Sc Ci fib]
+11.0 +10.0 94 +9 +9 1006.3 915.1
ЮЗ 4 50 км 8/8 600 м
[Cb calv]
+11.3 +9.5 89 +9 +9 1006.7 915.6
З 2 50 км 8/8 600 м
[Cb calv]
+12.1 +9.7 85 +11 +12 1008.5 917.4 +10.8 2
З 4 50 км 9/8 600 м
[Cb calv Ci fib]
+14.2 +10.2 77 +13 +15 1008.2 917.8
З 4 50 км 8/6 600 м
[Cu med, cong Ci fib]
+18.9 +10.1 57 +20 +23 1006.0 917.2
СВ 5 {10} 50 км 8/6 600 м
[Cb calv Ci fib]
+16.1 +9.1 63 +15 +16 1007.6 917.7
З 2 {11} 50 км {ливн. дождь} 8/6 600 м
[Cb calv Ci fib]
+12.7 +10.1 84 +12 +12 1010.3 919.3 +20.3 0.6
Ю 1 50 км 6/6 600 м
[Cu Sc]
+8.2 +7.5 95 +7 +7 1013.0 920.3
штиль 0 50 км 6/6 600 м
[Cb calv]
+4.3 +4.1 99 +3 +3 1015.2 920.9
В 1 50 км 6/6 600 м
[Cu Sc]
+5.9 +5.6 98 +5 +5 1015.2 921.5
З 2 500 м туман, небо не видно ?/? +10.3 +9.3 94 +9 +9 1014.3 922.1 +3.8
СЗ 3 50 км {туман} 6/3 1000 м
[Cu med, cong Ci fib]
+18.3 +10.3 60 +19 +27 1010.6 921.2
С 3 50 км гроза без осадков 8/8 600 м
[Cb calv]
+20.0 +10.0 53 +22 +24 комфорт 1008.1 919.3
З 5 50 км {гроза, ливн. дождь} 8/6 600 м
[Cb calv Ci fib]
+18.3 +8.9 54 +18 +19 1009.5 920.1
З 3 50 км {гроза, ливн. дождь} 8/0
[Ci fib]
+16.9 +10.1 64 +17 +17 1010.1 920.2 +22.8 0.3
штиль 0 50 км 6/4 1000 м
[Cu Sc Ci fib]
+11.3 +10.1 92 +11 +11 1012.4 920.6
З 1 50 км 3/0
[Ci fib]
+6.4 +6.0 97 +5 +5 1014.4 920.5
З 1 50 км 3/0
[Ci fib]
+5.7 +5.2 97 +4 +4 1014.4 920.5
З 2 500 м туман, небо не видно ?/? +8.3 +7.5 95 +6 +6 1012.7 919.9 +5.6
З 5 50 км {туман} 3/3 1000 м
[Cu med, cong Ci fib]
+19.8 +10.4 55 +21 +27 комфорт 1007.1 918.4
З 4 50 км {туман} 8/6 600 м
[Cu med, cong Ci fib]
+23.9 +7.9 36 +24 +28 комфорт 1000.1 916.4
З 6 {11} 50 км 9/6 600 м
[Cb calv Ci fib]
+24.3 +8.7 37 +25 +26 комфорт 1002.3 915.2
З 3 {11} 50 км 8/0
[Ac lent Ci fib]
+21.7 +8.5 43 +23 +23 комфорт 1002.5 914.6 +24.5
ЮЗ 3 50 км 6/0
[Ci fib]
+17.5 +7.9 53 +18 +18 1004.0 914.8
штиль 0 50 км 3/0
[Ci fib]
+9.2 +8.2 93 +8 +8 1006.3 914.4
штиль 0 50 км 10/0
[Ac As]
+9.0 +7.7 92 +8 +8 1006.7 914.7
З 3 50 км 6/0
[Ci fib]
+17.2 +10.0 63 +17 +21 1005.0 915.6 +7.6
СЗ 8 {11} 50 км 6/4 1000 м
[Cu med, cong Ci fib]
+21.2 +9.7 48 +23 +24 комфорт 1002.8 914.8
СЗ 5 {11} 50 км 4/4 1000 м
[Cu med, cong]
+23.2 +8.4 39 +24 +30 комфорт 1000.8 913.5
З 8 {12} 50 км 4/4 1000 м
[Cu med, cong]
+26.4 +5.5 26 +26 +26 жарко 998.9 912.5
Местоположение метеостанции Хилок (Забайкальский край, Россия): широта 51.37 долгота 110.40 высота над уровнем моря 802 м.
В архиве по умолчанию представлена погода в Хилке за последнюю неделю. Архивные данные за месяц целиком и за предыдущие месяцы, начиная с января 2011 года, Вы можете получить, выбрав интересующий диапазон дат из раскрывающегося списка и нажав кнопку "Найти!".
*Определитесь, кто Вы:
Внимание! Время в таблицах - всемирное. Для получения местного времени необходимо прибавить поправку, которая равна 9 ч.
Некоторые строки с данными для отдельных станций могут быть выделены курсивом. Это означает, что фактические данные отсутствуют по различным причинам, а приведенные значения являются расчетными модельными данными для данного пункта наблюдений.
Смотрите также архив погоды в соседних городах и на ближайших метеорологических станциях:
Партнеры нашего сайта:      
Пояснения к столбцам:
  • Ветер - указаны скорость ветра в м/с - средняя за 10 мин, порывы в срок и между сроками (в фигурных скобках) и направление, откуда дует ветер: С - северный,
  • СВ - северо-восточный, В - восточный, ЮВ - юго-восточный, Ю - южный, ЮЗ - юго-западный, З - западный, СЗ - северо-западный.
  • Видимость - горизонтальная дальность видимости в метрах или километрах. При видимости от 1 до 10 км при отсутствии осадков обычно наблюдается дымка, при ухудшении видимости до 1 км и менее - туман. В сухую погоду видимость может ухудшаться дымом, пылью или мглою.
  • Явления - указаны атмосферные явления, наблюдавшиеся в срок или в последний час перед сроком; фигурными скобками обозначены явления, наблюдавшиеся между сроками (за 1-3 часа до срока); квадратными скобками обозначены град или гололедные отложения с указанием их диаметра в мм.
  • Облачность - указаны через наклонную черту общая и нижняя облачность в баллах и высота нижней границы облаков в метрах; квадратными скобками обозначены формы облаков: Ci - перистые, Cs - перисто-слоистые, Cc - перисто-кучевые, Ac - высококучевые, As - высокослоистые, Sc - слоисто-кучевые, Ns - слоисто-дождевые, Cu - кучевые, Cb - кучево-дождевые. Подробнее классификацию облаков см. в Атласе облаков (PDF).
  • T - Температура воздуха - температура, измеренная на высоте 2 м над землей.
  • Td - Температура точки росы - температура, при понижении до которой содержащийся в воздухе водяной пар достигнет насыщения.
  • f - Относительная влажность воздуха - влажноcть воздуха, измеренная на высоте 2 м над землей.
  • Te - Эффективная температура - температура, которую ощущает одетый по сезону человек в тени. Характеристика душности погоды. При расчете учитывается влияние влажности воздуха и скорости ветра на теплоощущения человека.
  • Tes - Эффективная температура на солнце - температура, которую ощущает человек, с поправкой на солнечный нагрев. Характеристика знойности погоды. Зависит от высоты солнца над горизонтом, облачности и скорости ветра. Ночью, в пасмурную погоду, а также при ветре 12 м/с и более поправка равна нулю.
  • P - Атмосферное давление - приведенное к уровню моря атмосферное давление.
  • Po - Атмосферное давление - измеренное на уровне метеостанции атмосферное давление.
  • Tmin - Минимальная температура - минимум температуры воздуха на высоте 2 м над землей.
  • Tmax - Максимальная температура - максимум температуры воздуха на высоте 2 м над землей.
  • R - Количество осадков - Количество выпавших осадков за период времени, мм. При наведении курсора мыши на число - период времени, за который выпало указанное количество осадков.
  • R24 - Количество осадков - Количество выпавших осадков за 24 часа, мм.
  • S - Снежный покров - Высота снежного покрова, см. При наведении курсора мыши на число - состояние снежного покрова и степень покрытия местности в баллах.